TimeMST,TemperatureF,Dew PointF,Humidity,Sea Level PressureIn,VisibilityMPH,Wind Direction,Wind SpeedMPH,Gust SpeedMPH,PrecipitationIn,Events,Conditions,WindDirDegrees,DateUTC
12:56 AM,6.1,1.9,83,29.99,-9999.0,WNW,17.3,-,N/A,,Unknown,290,2012-11-11 07:56:00
1:56 AM,5.0,1.0,84,30.00,-9999.0,West,17.3,-,N/A,,Unknown,280,2012-11-11 08:56:00
2:56 AM,3.9,-0.0,84,30.01,-9999.0,WNW,16.1,-,N/A,,Unknown,290,2012-11-11 09:56:00
3:56 AM,3.0,-0.9,84,30.01,-9999.0,West,17.3,-,N/A,,Unknown,280,2012-11-11 10:56:00
4:56 AM,3.9,-0.0,84,30.00,-9999.0,West,16.1,-,N/A,,Unknown,280,2012-11-11 11:56:00
5:56 AM,3.9,-0.0,84,30.00,-9999.0,West,16.1,-,N/A,,Unknown,280,2012-11-11 12:56:00
6:56 AM,6.1,1.0,80,29.99,-9999.0,West,19.6,-,N/A,,Unknown,270,2012-11-11 13:56:00
7:56 AM,9.0,3.9,80,30.01,-9999.0,West,23.0,-,N/A,,Unknown,280,2012-11-11 14:56:00
8:56 AM,10.0,5.0,80,30.03,-9999.0,WNW,25.3,-,N/A,,Unknown,290,2012-11-11 15:56:00
9:56 AM,12.0,5.0,73,30.04,-9999.0,WNW,32.2,40.3,N/A,,Unknown,290,2012-11-11 16:56:00
10:56 AM,12.9,6.1,74,30.05,-9999.0,WNW,35.7,40.3,N/A,,Unknown,290,2012-11-11 17:56:00
11:56 AM,15.1,8.1,74,30.05,-9999.0,WNW,35.7,39.1,N/A,,Unknown,290,2012-11-11 18:56:00
12:56 PM,15.1,8.1,74,30.05,-9999.0,WNW,32.2,39.1,N/A,,Unknown,290,2012-11-11 19:56:00
1:56 PM,16.0,9.0,74,30.06,-9999.0,WNW,33.4,36.8,N/A,,Unknown,290,2012-11-11 20:56:00
2:56 PM,15.1,8.1,74,30.08,-9999.0,WNW,29.9,34.5,N/A,,Unknown,290,2012-11-11 21:56:00
3:56 PM,12.9,7.0,77,30.12,-9999.0,WNW,25.3,32.2,N/A,,Unknown,290,2012-11-11 22:56:00
4:56 PM,10.0,6.1,84,30.12,-9999.0,WNW,15.0,-,N/A,,Unknown,290,2012-11-11 23:56:00
5:56 PM,9.0,5.0,84,30.13,-9999.0,WNW,16.1,-,N/A,,Unknown,290,2012-11-12 00:56:00
6:56 PM,12.0,7.0,80,30.13,-9999.0,WNW,19.6,-,N/A,,Unknown,290,2012-11-12 01:56:00
7:56 PM,14.0,9.0,80,30.12,-9999.0,WNW,19.6,-,N/A,,Unknown,290,2012-11-12 02:56:00
8:56 PM,14.0,9.0,80,30.12,-9999.0,WNW,17.3,-,N/A,,Unknown,290,2012-11-12 03:56:00
9:56 PM,10.9,7.0,84,30.13,-9999.0,WNW,19.6,-,N/A,,Unknown,300,2012-11-12 04:56:00
10:56 PM,9.0,5.0,84,30.14,-9999.0,WNW,13.8,-,N/A,,Unknown,300,2012-11-12 05:56:00
11:56 PM,9.0,5.0,84,30.15,-9999.0,NW,11.5,-,N/A,,Unknown,310,2012-11-12 06:56:00